Location: Sperry Observatory
(40.6664°N, 74.3236°W)
Time: 19:17:32
(UTC-05:00)

Amateur Radio Satellites - All Passes

Search period start: 02 December 2016 18:47
Search period end: 03 December 2016 18:47
Location: Sperry Observatory, 40.6664°N, 74.3236°W

Satellite Date Start Highest point End Downlink Frequencies (MHz)
Time Altitude Azimuth
AIST 2 02 Dec 18:52:45 18:55:58 21° 248° (WSW) 18:59:10 435.215
Cubesat XI-IV 02 Dec 18:57:59 19:00:57 15° 269° (W) 19:03:56 437.490
CUTE 1.7 + AOD 2 02 Dec 18:59:40 19:03:54 87° 257° (WSW) 19:08:08 437.475
DOVE 4 02 Dec 19:13:35 19:15:05 11° 273° (W) 19:16:36 437.250
CANX-2 02 Dec 19:17:03 19:21:07 46° 261° (W) 19:25:12 2200.000
UWE-3 02 Dec 19:19:13 19:23:36 41° 72° (ENE) 19:27:57 435.000/436.395/437.385
CINEMA 3 02 Dec 19:20:08 19:24:34 35° 264° (W) 19:29:08 145.822/145.860
Oscar 11 02 Dec 19:20:26 19:23:45 22° 68° (ENE) 19:27:06 145.826/435.025
RS-15 02 Dec 19:28:59 19:37:18 22° 262° (W) 19:45:27 29.354- 29.394
HO-68 02 Dec 19:31:38 19:38:32 51° 260° (W) 19:45:30 435.675
AAUSAT CUBESAT 2 02 Dec 19:42:34 19:46:40 81° 258° (WSW) 19:50:48 437.432
DELFI C3 02 Dec 19:43:18 19:45:02 13° 65° (ENE) 19:46:46 145.870
SEEDS 02 Dec 19:51:12 19:54:57 32° 263° (W) 19:58:43 437.485
SO-50 02 Dec 19:53:07 19:56:44 22° 111° (ESE) 20:00:20 436.795
STRAND 1 02 Dec 19:54:29 19:59:26 52° 288° (WNW) 20:04:21 437.568
AIST 1 02 Dec 20:03:11 20:07:27 77° 97° (E) 20:11:48
CUBEBUG 2 02 Dec 20:04:33 20:09:05 44° 262° (W) 20:13:38 437.445
Cosmos 2491 02 Dec 20:06:37 20:13:18 26° 279° (W) 20:19:59 435.465 / 435.565
ZACube-1 02 Dec 20:09:07 20:13:42 86° 74° (ENE) 20:18:15 437.345
COMPASS 1 02 Dec 20:09:21 20:12:58 30° 263° (W) 20:16:38 437.405
CUSAT 1 02 Dec 20:10:59 20:14:04 32° 79° (E) 20:17:53 437.405
ISS 02 Dec 20:15:01 20:16:44 13° 353° (N) 20:18:26 145.825
Cosmos 2504 02 Dec 20:16:56 20:25:09 86° 96° (E) 20:33:57 435.465 / 435.565
FUNcube-1 02 Dec 20:19:10 20:23:44 81° 257° (WSW) 20:28:16 145.935
YUBILEINY 02 Dec 20:33:54 20:41:57 41° 287° (WNW) 20:50:07 435.215
HUMSAT D 02 Dec 20:36:49 20:40:29 29° 70° (ENE) 20:44:05 437.325/437.525
PCSat 02 Dec 20:50:57 20:56:12 47° 55° (NE) 21:01:25 145.827
PRISM 02 Dec 20:54:04 20:58:07 49° 100° (E) 21:02:09 437.425
Oscar 11 02 Dec 20:55:49 20:59:42 32° 263° (W) 21:03:36 145.826/435.025
UWE-3 02 Dec 20:56:46 21:00:10 20° 267° (W) 21:03:35 435.000/436.395/437.385
DELFI C3 02 Dec 21:15:36 21:19:24 49° 261° (W) 21:23:14 145.870
SO-50 02 Dec 21:32:21 21:36:55 45° 308° (NW) 21:41:28 436.795
CUBEBUG 1 02 Dec 21:47:49 21:50:28 16° 64° (ENE) 21:53:08 437.445
VELOX 1 02 Dec 21:49:50 21:51:24 12° 61° (ENE) 21:52:59 145.980
UNISAT 6 02 Dec 21:51:37 21:55:54 46° 98° (E) 22:00:04 437.425
ISS 02 Dec 21:52:14 21:54:18 15° 13° (NNE) 21:56:22 145.825
CUSAT 1 02 Dec 21:54:02 21:55:51 13° 266° (W) 21:57:51 437.405
DANDE 02 Dec 22:01:10 22:03:41 36° 263° (W) 22:06:35 436.750
HUMSAT D 02 Dec 22:12:39 22:16:03 23° 265° (W) 22:19:27 437.325/437.525
Cosmos 2504 02 Dec 22:13:56 22:19:47 20° 298° (WNW) 22:25:52 435.465 / 435.565
DX 1 02 Dec 22:15:51 22:17:33 12° 62° (ENE) 22:19:14 434.975-435.025
50 SAT 02 Dec 22:18:13 22:20:13 15° 67° (ENE) 22:22:14 437.505
TIGRISAT 02 Dec 22:22:46 22:27:14 85° 284° (WNW) 22:31:33 435.000
ESTCUBE 1 02 Dec 22:22:58 22:27:22 62° 74° (ENE) 22:31:48 437.505/2401.250
ANTELSAT 02 Dec 22:23:12 22:27:40 79° 284° (WNW) 22:31:59 437.575/2403.000
UKube-1 02 Dec 22:30:18 22:32:14 13° 62° (ENE) 22:34:10 .
PRISM 02 Dec 22:30:45 22:32:59 14° 296° (WNW) 22:35:14 437.425
PCSat 02 Dec 22:35:01 22:39:16 24° 253° (WSW) 22:43:31 145.827
AISAT 02 Dec 22:45:50 22:50:04 48° 72° (ENE) 22:54:21 437.250
SPROUT 02 Dec 22:48:52 22:52:38 31° 70° (ENE) 22:56:26 437.525
JAS-2 02 Dec 22:52:01 22:56:44 34° 97° (E) 23:01:34 435.910
GONETS M04 02 Dec 23:17:30 23:22:35 17° 77° (ENE) 23:27:40
NANOSAT C BR1 02 Dec 23:18:28 23:22:29 41° 98° (E) 23:26:28 145.865
QB50P2 02 Dec 23:20:28 23:24:38 50° 100° (E) 23:28:44 145.880/145.840
BUGSAT 1 02 Dec 23:21:01 23:23:27 15° 92° (E) 23:25:51 437.445
POLYITAN 1 02 Dec 23:21:09 23:25:16 48° 99° (E) 23:29:20 437.675
CUBEBUG 1 02 Dec 23:22:09 23:26:21 47° 261° (W) 23:30:36 437.445
VELOX 1 02 Dec 23:22:53 23:27:15 70° 258° (WSW) 23:31:41 145.980
ISS 02 Dec 23:28:09 23:31:24 50° 32° (NNE) 23:34:38 145.825
UNISAT 6 02 Dec 23:29:24 23:32:13 17° 296° (WNW) 23:34:58 437.425
Cosmos 2499 02 Dec 23:30:21 23:36:41 24° 80° (E) 23:43:13 435.465 / 435.565
QB50P1 02 Dec 23:35:22 23:39:37 71° 101° (E) 23:43:50 145.935-145.965
DUCHIFAT 1 02 Dec 23:42:32 23:46:47 73° 102° (ESE) 23:50:57 145.980
DX 1 02 Dec 23:48:51 23:53:09 66° 258° (WSW) 23:57:31 434.975-435.025
50 SAT 02 Dec 23:50:05 23:53:15 31° 262° (W) 23:56:25 437.505
POPSAT HIP 1 02 Dec 23:56:33 00:00:47 67° 285° (WNW) 00:04:57 437.405
ESTCUBE 1 03 Dec 00:02:53 00:04:34 12° 270° (W) 00:06:15 437.505/2401.250
UKube-1 03 Dec 00:03:29 00:07:44 61° 258° (WSW) 00:12:02 .
SWISSCUBE 03 Dec 00:10:01 00:10:46 10° 59° (ENE) 00:11:32 437.505
BEESAT 03 Dec 00:14:33 00:15:14 10° 59° (ENE) 00:15:55 436.000
Oscar 19 03 Dec 00:21:49 00:25:19 18° 92° (E) 00:28:48 437.125/150
TISAT 1 03 Dec 00:23:39 00:27:48 57° 74° (ENE) 00:32:00 437.305
AISAT 03 Dec 00:24:12 00:26:47 15° 268° (W) 00:29:23 437.250
SPROUT 03 Dec 00:25:10 00:28:34 22° 266° (W) 00:31:59 437.525
AUBIESAT-1 03 Dec 00:33:33 00:36:47 23° 61° (ENE) 00:40:12 437.475
ITUPSAT 1 03 Dec 00:36:58 00:40:05 18° 63° (ENE) 00:43:13 437.325
JAS-2 03 Dec 00:37:28 00:41:45 27° 294° (WNW) 00:46:05 435.910
M-CUBED/EXP-1 PRIME 03 Dec 00:42:03 00:45:41 34° 64° (ENE) 00:49:35 437.505
BUGSAT 1 03 Dec 00:55:01 00:59:02 44° 288° (WNW) 01:02:59 437.445
NANOSAT C BR1 03 Dec 00:55:06 00:57:52 17° 295° (WNW) 01:00:38 145.865
QB50P2 03 Dec 00:57:40 00:59:59 15° 296° (WNW) 01:02:18 145.880/145.840
POLYITAN 1 03 Dec 00:58:12 01:00:39 15° 296° (WNW) 01:03:04 437.675
O/OREOS (USA 219) 03 Dec 00:59:23 01:01:24 13° 52° (NE) 01:03:26 437.305
ISS 03 Dec 01:05:19 01:07:39 18° 228° (SW) 01:09:57 145.825
GONETS M04 03 Dec 01:09:21 01:18:06 90° 103° (ESE) 01:26:51
QB50P1 03 Dec 01:13:43 01:14:47 11° 298° (WNW) 01:15:49 145.935-145.965
Cosmos 2499 03 Dec 01:20:26 01:28:51 73° 280° (W) 01:37:45 435.465 / 435.565
DUCHIFAT 1 03 Dec 01:21:05 01:21:49 10° 298° (WNW) 01:22:34 145.980
Gurwin Techsat 1B 03 Dec 01:26:36 01:31:32 38° 98° (E) 01:36:27 435.225
AO-85 03 Dec 01:36:35 01:40:03 19° 111° (ESE) 01:43:22 145.980
PHONESAT 2.4 03 Dec 01:40:26 01:42:40 24° 156° (SSE) 01:44:54 2401.200-2431.200
SWISSCUBE 03 Dec 01:43:01 01:47:47 89° 87° (E) 01:52:36 437.505
BEESAT 03 Dec 01:47:28 01:52:15 88° 71° (ENE) 01:57:03 436.000
MOZHAYETS 4 03 Dec 01:49:57 01:53:26 22° 66° (ENE) 01:56:54
Oscar 19 03 Dec 01:59:53 02:04:56 54° 288° (WNW) 02:09:59 437.125/150
TISAT 1 03 Dec 02:02:14 02:03:48 12° 269° (W) 02:05:21 437.305
AUBIESAT-1 03 Dec 02:07:25 02:11:00 31° 259° (W) 02:14:50 437.475
ITUPSAT 1 03 Dec 02:12:50 02:17:30 52° 260° (W) 02:22:11 437.325
M-CUBED/EXP-1 PRIME 03 Dec 02:17:18 02:20:15 20° 263° (W) 02:23:24 437.505
ITAMSAT 1 03 Dec 02:20:39 02:25:02 27° 95° (E) 02:29:23 435.822/435.867
O/OREOS (USA 219) 03 Dec 02:36:53 02:41:21 72° 251° (WSW) 02:45:47 437.305
KKS-1 03 Dec 02:45:44 02:49:48 35° 70° (ENE) 02:53:54 437.445
AO-7 03 Dec 02:59:47 03:07:34 41° 99° (E) 03:15:18 29.400- 29.500
STARS 03 Dec 03:02:16 03:05:53 25° 67° (ENE) 03:09:32 437.465
Gurwin Techsat 1B 03 Dec 03:06:52 03:11:18 28° 294° (WNW) 03:15:44 435.225
GONETS M04 03 Dec 03:10:24 03:16:10 19° 298° (WNW) 03:21:57
PHONESAT 2.4 03 Dec 03:15:05 03:17:44 77° 173° (S) 03:20:24 2401.200-2431.200
AO-85 03 Dec 03:15:22 03:20:12 52° 306° (NW) 03:24:41 145.980
Cosmos 2499 03 Dec 03:19:07 03:23:43 15° 302° (WNW) 03:28:27 435.465 / 435.565
CUBESAT XI-V 03 Dec 03:19:30 03:23:18 26° 68° (ENE) 03:27:06 437.345
MOZHAYETS 4 03 Dec 03:26:05 03:30:20 37° 262° (W) 03:34:37
ITAMSAT 1 03 Dec 03:59:49 04:04:32 36° 292° (WNW) 04:09:12 435.822/435.867
KKS-1 03 Dec 04:23:04 04:26:26 21° 266° (W) 04:29:51 437.445
SO-50 03 Dec 04:24:14 04:27:37 20° 43° (NE) 04:30:56 436.795
STARS 03 Dec 04:38:15 04:42:07 29° 263° (W) 04:46:01 437.465
YUBILEINY 03 Dec 04:48:03 04:54:22 21° 64° (ENE) 05:00:38 435.215
PHONESAT 2.4 03 Dec 04:50:20 04:53:00 76° 189° (S) 04:55:39 2401.200-2431.200
AO-7 03 Dec 04:52:30 05:00:21 47° 297° (WNW) 05:08:12 29.400- 29.500
BEESAT 3 03 Dec 04:53:01 04:55:58 21° 112° (ESE) 04:58:57 437.485
CUBESAT XI-V 03 Dec 04:56:32 05:00:33 30° 264° (W) 05:04:36 437.345
GOMX 1 03 Dec 05:03:04 05:07:49 30° 95° (E) 05:12:34 467.674
BRITE-PL 03 Dec 05:08:39 05:14:01 74° 103° (ESE) 05:19:38 437.365/2234.400
CUTE-I 03 Dec 05:09:18 05:12:37 16° 91° (E) 05:15:54 437.470
BEESAT 2 03 Dec 05:15:07 05:17:37 16° 110° (ESE) 05:20:09 435.950
Cosmos 2491 03 Dec 05:18:15 05:22:13 14° 75° (ENE) 05:26:09 435.465 / 435.565
HORYU 2 03 Dec 05:27:40 05:32:08 87° 109° (ESE) 05:36:33 437.375
DOVE 4 03 Dec 05:31:45 05:36:00 24° 93° (E) 05:40:09 437.250
STRAND 1 03 Dec 05:31:51 05:36:04 26° 66° (ENE) 05:40:17 437.568
RS-15 03 Dec 05:32:26 05:37:17 13° 94° (E) 05:42:11 29.354- 29.394
Cubesat XI-IV 03 Dec 05:33:10 05:37:42 28° 95° (E) 05:42:11 437.490
NOAA 15 03 Dec 05:42:22 05:47:15 37° 98° (E) 05:52:08 137.62
SO-50 03 Dec 06:03:59 06:08:24 53° 242° (WSW) 06:12:43 436.795
Cosmos 2504 03 Dec 06:10:35 06:18:25 34° 70° (ENE) 06:25:53 435.465 / 435.565
AIST 1 03 Dec 06:11:15 06:14:23 19° 72° (ENE) 06:17:31
PHONESAT 2.4 03 Dec 06:25:52 06:28:04 23° 204° (SSW) 06:30:16 2401.200-2431.200
NOAA 18 03 Dec 06:27:45 06:33:12 56° 101° (E) 06:38:37 137.9125
BEESAT 3 03 Dec 06:29:51 06:33:24 33° 309° (NW) 06:37:00 437.485
LilacSat-2 03 Dec 06:31:41 06:35:24 54° 285° (WNW) 06:39:04 437.200
GOMX 1 03 Dec 06:40:54 06:45:51 37° 290° (WNW) 06:50:51 467.674
YUBILEINY 03 Dec 06:43:24 06:52:16 84° 264° (W) 07:01:06 435.215
CUTE 1.7 + AOD 2 03 Dec 06:45:56 06:48:36 16° 92° (E) 06:51:15 437.475
CUTE-I 03 Dec 06:47:48 06:53:04 61° 288° (WNW) 06:58:17 437.470
BRITE-PL 03 Dec 06:48:48 06:51:55 16° 297° (WNW) 06:55:08 437.365/2234.400
AO-7 03 Dec 06:49:52 06:51:01 10° 319° (NW) 06:52:11 29.400- 29.500
BEESAT 2 03 Dec 06:51:18 06:55:03 41° 307° (NW) 06:58:52 435.950
HO-68 03 Dec 06:59:41 07:06:04 33° 96° (E) 07:12:24 435.675
CANX-2 03 Dec 07:02:23 07:06:04 29° 96° (E) 07:09:45 2200.000
Cosmos 2491 03 Dec 07:08:42 07:17:29 78° 94° (E) 07:26:15 435.465 / 435.565
DOVE 4 03 Dec 07:08:47 07:13:48 43° 289° (WNW) 07:18:43 437.250
STRAND 1 03 Dec 07:10:17 07:15:02 38° 262° (W) 07:19:49 437.568
Cubesat XI-IV 03 Dec 07:12:55 07:17:48 37° 292° (WNW) 07:22:39 437.490
CINEMA 3 03 Dec 07:14:51 07:19:42 61° 100° (E) 07:24:19 145.822/145.860
NOAA 15 03 Dec 07:22:28 07:26:51 28° 294° (WNW) 07:31:15 137.62
AAUSAT CUBESAT 2 03 Dec 07:26:08 07:28:40 16° 92° (E) 07:31:11 437.432
SEEDS 03 Dec 07:34:48 07:38:44 39° 98° (E) 07:42:39 437.485
RS-15 03 Dec 07:35:37 07:47:07 67° 114° (ESE) 07:59:12 29.354- 29.394
PRISM 03 Dec 07:43:08 07:46:46 33° 70° (ENE) 07:50:26 437.425
AIST 1 03 Dec 07:48:03 07:52:06 36° 269° (W) 07:56:07
COMPASS 1 03 Dec 07:51:45 07:55:41 40° 98° (E) 07:59:35 437.405
CUBEBUG 2 03 Dec 07:55:54 08:00:06 40° 97° (E) 08:04:08 437.445
ZACube-1 03 Dec 07:59:13 08:01:51 16° 92° (E) 08:04:28 437.345
Cosmos 2504 03 Dec 08:03:38 08:12:10 55° 270° (W) 08:20:15 435.465 / 435.565
FUNcube-1 03 Dec 08:08:36 08:11:37 19° 93° (E) 08:14:34 145.935
NOAA 18 03 Dec 08:09:22 08:13:25 21° 298° (WNW) 08:17:26 137.9125
CUTE 1.7 + AOD 2 03 Dec 08:20:39 08:24:36 40° 288° (WNW) 08:28:32 437.475
CANX-2 03 Dec 08:38:28 08:41:47 23° 292° (WNW) 08:45:06 2200.000
Oscar 11 03 Dec 08:42:46 08:46:54 44° 99° (E) 08:51:00 145.826/435.025
YUBILEINY 03 Dec 08:42:55 08:47:37 16° 284° (WNW) 08:52:20 435.215
UWE-3 03 Dec 08:45:23 08:49:46 89° 285° (WNW) 08:54:00 435.000/436.395/437.385
HO-68 03 Dec 08:47:05 08:53:55 48° 294° (WNW) 09:00:43 435.675
AIST 2 03 Dec 08:48:36 08:52:42 85° 121° (ESE) 08:56:53 435.215
UNISAT 6 03 Dec 08:49:33 08:53:56 41° 72° (ENE) 08:58:19 437.425
CINEMA 3 03 Dec 08:53:27 08:56:14 15° 298° (WNW) 08:58:57 145.822/145.860
DELFI C3 03 Dec 08:53:39 08:56:36 20° 94° (E) 08:59:33 145.870
AAUSAT CUBESAT 2 03 Dec 09:00:25 09:04:18 40° 288° (WNW) 09:08:11 437.432
JAS-2 03 Dec 09:05:21 09:09:27 18° 62° (ENE) 09:13:17 435.910
Cosmos 2491 03 Dec 09:08:42 09:15:16 23° 295° (WNW) 09:21:52 435.465 / 435.565
SEEDS 03 Dec 09:11:21 09:14:08 17° 294° (WNW) 09:16:53 437.485
CUSAT 1 03 Dec 09:14:21 09:17:34 32° 98° (E) 09:20:16 437.405
PRISM 03 Dec 09:19:16 09:22:08 19° 266° (W) 09:25:02 437.425
TIGRISAT 03 Dec 09:20:15 09:24:57 80° 77° (ENE) 09:29:39 435.000
ANTELSAT 03 Dec 09:20:50 09:25:32 86° 76° (ENE) 09:30:14 437.575/2403.000
DANDE 03 Dec 09:27:35 09:30:46 17° 94° (E) 09:33:30 436.750
COMPASS 1 03 Dec 09:28:14 09:30:54 17° 294° (WNW) 09:33:34 437.405
CUBEBUG 2 03 Dec 09:33:18 09:36:23 19° 295° (WNW) 09:39:25 437.445
ZACube-1 03 Dec 09:34:20 09:38:21 40° 288° (WNW) 09:42:16 437.345
FUNcube-1 03 Dec 09:44:06 09:47:58 34° 289° (WNW) 09:51:44 145.935
RS-15 03 Dec 09:49:14 10:00:23 43° 319° (NW) 10:12:00 29.354- 29.394
HUMSAT D 03 Dec 09:55:15 09:59:16 54° 100° (E) 10:03:14 437.325/437.525
AO-85 03 Dec 10:08:19 10:10:29 14° 41° (NE) 10:12:36 145.980
NANOSAT C BR1 03 Dec 10:10:11 10:13:54 30° 69° (ENE) 10:17:37 145.865
BUGSAT 1 03 Dec 10:11:47 10:13:03 11° 62° (ENE) 10:14:18 437.445
QB50P2 03 Dec 10:12:33 10:16:28 36° 71° (ENE) 10:20:25 145.880/145.840
POLYITAN 1 03 Dec 10:13:13 10:17:07 35° 70° (ENE) 10:21:01 437.675
ESTCUBE 1 03 Dec 10:17:21 10:19:33 13° 91° (E) 10:21:44 437.505/2401.250
Oscar 11 03 Dec 10:19:58 10:22:39 16° 295° (WNW) 10:25:20 145.826/435.025
QB50P1 03 Dec 10:27:04 10:31:12 49° 73° (ENE) 10:35:21 145.935-145.965
UNISAT 6 03 Dec 10:27:19 10:30:46 20° 267° (W) 10:34:14 437.425
DELFI C3 03 Dec 10:27:58 10:31:25 29° 290° (WNW) 10:34:53 145.870
AIST 2 03 Dec 10:29:54 10:31:47 13° 320° (NW) 10:33:40 435.215
DUCHIFAT 1 03 Dec 10:33:38 10:37:45 49° 73° (ENE) 10:41:52 145.980
JAS-2 03 Dec 10:47:16 10:54:02 75° 257° (WSW) 11:00:00 435.910
POPSAT HIP 1 03 Dec 10:48:05 10:52:22 84° 77° (ENE) 10:56:41 437.405
DANDE 03 Dec 11:08:38 11:13:23 38° 281° (W) 11:17:03 436.750
CUBEBUG 1 03 Dec 11:11:00 11:14:57 31° 96° (E) 11:18:52 437.445
Cosmos 2499 03 Dec 11:12:47 11:20:59 43° 73° (ENE) 11:28:38 435.465 / 435.565
VELOX 1 03 Dec 11:13:46 11:17:16 22° 95° (E) 11:20:45 145.980
50 SAT 03 Dec 11:16:57 11:19:19 17° 94° (E) 11:21:40 437.505
GONETS M04 03 Dec 11:20:12 11:28:27 44° 74° (ENE) 11:36:40
PCSat 03 Dec 11:32:11 11:37:19 46° 112° (ESE) 11:42:28 145.827
HUMSAT D 03 Dec 11:32:39 11:34:24 12° 296° (WNW) 11:36:08 437.325/437.525
DX 1 03 Dec 11:37:54 11:41:16 21° 94° (E) 11:44:37 434.975-435.025
Oscar 19 03 Dec 11:38:12 11:42:23 26° 66° (ENE) 11:46:36 437.125/150
BUGSAT 1 03 Dec 11:43:36 11:47:48 69° 259° (WSW) 11:52:03 437.445
NANOSAT C BR1 03 Dec 11:46:11 11:49:36 23° 265° (W) 11:53:01 145.865
AO-85 03 Dec 11:47:24 11:51:20 63° 240° (WSW) 11:55:09 145.980
QB50P2 03 Dec 11:49:18 11:52:22 19° 267° (W) 11:55:26 145.880/145.840
POLYITAN 1 03 Dec 11:49:49 11:52:58 20° 266° (W) 11:56:09 437.675
UKube-1 03 Dec 11:51:21 11:54:44 22° 95° (E) 11:58:05 .
ESTCUBE 1 03 Dec 11:52:15 11:56:41 56° 286° (WNW) 12:01:06 437.505/2401.250
QB50P1 03 Dec 12:04:58 12:07:13 14° 269° (W) 12:09:30 145.935-145.965
RS-15 03 Dec 12:08:29 12:17:30 23° 352° (N) 12:26:37 29.354- 29.394
SPROUT 03 Dec 12:10:05 12:14:22 61° 101° (E) 12:18:35 437.525
DUCHIFAT 1 03 Dec 12:11:30 12:13:41 14° 269° (W) 12:15:53 145.980
AISAT 03 Dec 12:12:13 12:16:43 80° 285° (WNW) 12:21:10 437.250
AO-7 03 Dec 12:12:21 12:15:18 12° 43° (NE) 12:18:15 29.400- 29.500
Gurwin Techsat 1B 03 Dec 12:47:13 12:52:26 59° 72° (ENE) 12:57:40 435.225
CUBEBUG 1 03 Dec 12:47:30 12:51:04 24° 292° (WNW) 12:54:38 437.445
50 SAT 03 Dec 12:49:35 12:52:38 27° 289° (WNW) 12:55:41 437.505
VELOX 1 03 Dec 12:49:44 12:53:46 34° 290° (WNW) 12:57:46 145.980
Cosmos 2499 03 Dec 13:06:07 13:13:59 41° 274° (W) 13:21:23 435.465 / 435.565
BEESAT 3 03 Dec 13:10:12 13:12:30 15° 43° (NE) 13:14:46 437.485
DX 1 03 Dec 13:13:32 13:17:31 34° 290° (WNW) 13:21:28 434.975-435.025
PCSat 03 Dec 13:16:18 13:20:53 27° 311° (NW) 13:25:31 145.827
Oscar 19 03 Dec 13:16:47 13:21:30 37° 262° (W) 13:26:17 437.125/150
GONETS M04 03 Dec 13:17:15 13:25:07 40° 274° (W) 13:33:00
UKube-1 03 Dec 13:26:55 13:30:48 32° 290° (WNW) 13:34:39 .
BEESAT 2 03 Dec 13:32:58 13:34:46 13° 41° (NE) 13:36:34 435.950
ITAMSAT 1 03 Dec 13:38:05 13:42:56 41° 69° (ENE) 13:47:49 435.822/435.867
TISAT 1 03 Dec 13:43:09 13:47:24 75° 285° (WNW) 13:51:35 437.305
SWISSCUBE 03 Dec 13:44:08 13:47:53 23° 95° (E) 13:51:35 437.505
AUBIESAT-1 03 Dec 13:46:20 13:49:37 19° 97° (E) 13:52:49 437.475
SPROUT 03 Dec 13:47:55 13:49:45 13° 297° (WNW) 13:51:34 437.525
BEESAT 03 Dec 13:48:32 13:52:16 23° 94° (E) 13:55:58 436.000
M-CUBED/EXP-1 PRIME 03 Dec 13:55:16 13:59:23 29° 100° (E) 14:03:21 437.505
AO-7 03 Dec 13:58:14 14:06:11 54° 65° (ENE) 14:14:13 29.400- 29.500
ITUPSAT 1 03 Dec 14:13:33 14:18:02 39° 98° (E) 14:22:28 437.325
RS-15 03 Dec 14:25:10 14:35:42 31° 28° (NNE) 14:46:03 29.354- 29.394
Gurwin Techsat 1B 03 Dec 14:29:20 14:32:45 17° 269° (W) 14:36:10 435.225
BEESAT 3 03 Dec 14:46:34 14:50:32 64° 240° (WSW) 14:54:27 437.485
BEESAT 2 03 Dec 15:09:04 15:13:06 82° 241° (WSW) 15:17:07 435.950
O/OREOS (USA 219) 03 Dec 15:11:58 15:14:12 14° 98° (E) 15:16:26 437.305
ITAMSAT 1 03 Dec 15:18:21 15:22:31 24° 265° (W) 15:26:44 435.822/435.867
AUBIESAT-1 03 Dec 15:19:47 15:24:11 44° 294° (WNW) 15:28:26 437.475
MOZHAYETS 4 03 Dec 15:20:55 15:25:21 50° 99° (E) 15:29:46
SWISSCUBE 03 Dec 15:21:24 15:25:45 37° 290° (WNW) 15:30:04 437.505
BEESAT 03 Dec 15:25:45 15:30:07 37° 291° (WNW) 15:34:28 436.000
M-CUBED/EXP-1 PRIME 03 Dec 15:29:39 15:33:44 30° 297° (WNW) 15:37:44 437.505
AO-7 03 Dec 15:51:55 15:59:12 34° 263° (W) 16:06:35 29.400- 29.500
ITUPSAT 1 03 Dec 15:51:58 15:55:35 22° 295° (WNW) 15:59:12 437.325
ISS 03 Dec 16:08:55 16:11:12 18° 132° (SE) 16:13:29 145.825
GOMX 1 03 Dec 16:11:24 16:15:07 26° 67° (ENE) 16:19:03 467.674
KKS-1 03 Dec 16:12:49 16:17:20 75° 104° (ESE) 16:21:47 437.445
NOAA 18 03 Dec 16:16:21 16:19:19 15° 58° (ENE) 16:22:19 137.9125
BRITE-PL 03 Dec 16:19:50 16:24:02 75° 76° (ENE) 16:28:32 437.365/2234.400
HORYU 2 03 Dec 16:24:53 16:29:22 77° 74° (ENE) 16:33:52 437.375
STARS 03 Dec 16:27:11 16:31:30 49° 100° (E) 16:35:45 437.465
CUTE-I 03 Dec 16:30:21 16:34:49 28° 66° (ENE) 16:39:18 437.470
DOVE 4 03 Dec 16:37:05 16:40:39 21° 65° (ENE) 16:44:22 437.250
RS-15 03 Dec 16:38:08 16:50:36 78° 56° (NE) 17:02:37 29.354- 29.394
O/OREOS (USA 219) 03 Dec 16:48:34 16:53:05 57° 295° (WNW) 16:57:35 437.305
CUBESAT XI-V 03 Dec 16:52:25 16:57:03 67° 101° (E) 17:01:42 437.345
Cubesat XI-IV 03 Dec 16:54:35 16:59:40 44° 70° (ENE) 17:04:46 437.490
MOZHAYETS 4 03 Dec 16:59:15 17:02:07 17° 296° (WNW) 17:04:57
NOAA 15 03 Dec 17:02:01 17:07:09 58° 72° (ENE) 17:12:18 137.62
AIST 2 03 Dec 17:10:10 17:14:17 49° 54° (NE) 17:18:23 435.215
LilacSat-2 03 Dec 17:12:43 17:16:32 65° 75° (ENE) 17:20:22 437.200
Cosmos 2491 03 Dec 17:19:51 17:27:49 38° 72° (ENE) 17:35:42 435.465 / 435.565
HO-68 03 Dec 17:28:53 17:34:26 25° 59° (ENE) 17:40:00 435.675
CUTE 1.7 + AOD 2 03 Dec 17:39:36 17:41:13 12° 63° (ENE) 17:42:50 437.475
ISS 03 Dec 17:44:13 17:47:26 51° 328° (NNW) 17:50:41 145.825
GOMX 1 03 Dec 17:49:08 17:53:04 30° 265° (W) 17:57:17 467.674
YUBILEINY 03 Dec 17:49:55 17:56:16 23° 80° (E) 18:02:37 435.215
KKS-1 03 Dec 17:51:50 17:53:15 11° 299° (WNW) 17:54:40 437.445
NOAA 18 03 Dec 17:53:43 17:59:15 82° 256° (WSW) 18:04:50 137.9125
CANX-2 03 Dec 17:55:15 17:58:24 21° 67° (ENE) 18:01:32 2200.000
STARS 03 Dec 18:04:42 18:07:26 16° 296° (WNW) 18:10:09 437.465
CUTE-I 03 Dec 18:09:42 18:14:41 38° 262° (W) 18:19:41 437.470
DOVE 4 03 Dec 18:13:33 18:17:59 42° 263° (W) 18:22:43 437.250
CINEMA 3 03 Dec 18:15:16 18:20:00 53° 73° (ENE) 18:24:53 145.822/145.860
AAUSAT CUBESAT 2 03 Dec 18:17:54 18:18:47 11° 63° (ENE) 18:19:41 437.432
SEEDS 03 Dec 18:26:21 18:29:49 26° 69° (ENE) 18:33:17 437.485
CUBESAT XI-V 03 Dec 18:31:40 18:33:52 13° 298° (WNW) 18:36:04 437.345
Cubesat XI-IV 03 Dec 18:35:41 18:39:54 23° 266° (W) 18:44:09 437.490
AIST 1 03 Dec 18:42:46 18:43:38 11° 83° (E) 18:44:29
